Tracking 23726 objects as of 16-Oct-2021
HD Live streaming from Space Station
objects crossing your sky now

PEGASUS R/B

Track PEGASUS R/B now!
10-day predictions


NORAD ID: 32766
Int'l Code: 2008-017B
Perigee: 360.2 km
Apogee: 491.1 km
Inclination: 13.0 °
Period: 92.9 minutes
Semi major axis: 6796 km
RCS: 1.2481 m2 (large)
Launch date: April 16, 2008
Source: United States (US)
Launch site: Pegasus launched from Western Range Air Space (WRAS)

Note: This is a ROCKET BODY
aabbcc
Your satellite tracking list
Your tracking list is empty




NASA's NSSDC Master Catalog

Two Line Element Set (TLE):
1 32766U 08017B   21288.75005568  .00015482  00000-0  20292-3 0  9995
2 32766  12.9974 159.9520 0096267 247.2453 111.7631 15.49397084747273
Source of the keplerian elements: AFSPC